This demonstration page uses our WeatherBlox Daily Observations layout. Learn more.

39.29038, -76.61219

Hourly Observations for July 18, 2018

Temp ( °F °C ) Dew Point ( °F °C ) Humidity (%) Winds ( mph kmh ) Pressure ( in mb ) Visibility ( mi km ) Precip ( " mm )
12:54 am 00:54 undefined 77 25 71 21.7 82 82 undefined N/A 29.85 1011 N/A 0 0
1:54 am 01:54 undefined 76 24.4 70 21.1 82 82 undefined N/A 29.85 1011 N/A 0 0
2:54 am 02:54 undefined 76 24.4 65 18.3 69 69 undefined N/A 29.86 1011 N/A 0 0
3:54 am 03:54 undefined 75 23.9 64 17.8 69 69 undefined N/A 29.88 1012 N/A 0 0
4:54 am 04:54 undefined 74 23.3 62 16.7 67 67 undefined N/A 29.88 1012 N/A 0 0
5:54 am 05:54 undefined 73 22.8 61 16.1 66 66 undefined N/A 29.89 1012 N/A 0 0
6:54 am 06:54 undefined 73 22.8 61 16.1 66 66 undefined N/A 29.92 1013 N/A 0 0
7:54 am 07:54 undefined 75 23.9 60 15.6 60 60 undefined N/A 29.95 1014 N/A 0 0
8:54 am 08:54 undefined 77 25 59 15 54 54 undefined N/A 29.96 1015 N/A 0 0
9:54 am 09:54 undefined 80 26.7 59 15 49 49 undefined N/A 29.98 1015 N/A 0 0
10:54 am 10:54 undefined 83 28.3 57 13.9 41 41 undefined N/A 29.98 1015 N/A 0 0
11:54 am 11:54 undefined 85 29.4 55 12.8 36 36 undefined N/A 29.96 1015 N/A 0 0
12:54 pm 12:54 undefined 86 30 56 13.3 36 36 undefined N/A 29.94 1014 N/A 0 0
1:54 pm 13:54 undefined 86 30 56 13.3 36 36 undefined N/A 29.94 1014 N/A 0 0
2:54 pm 14:54 undefined 88 31.1 56 13.3 34 34 undefined N/A 29.95 1014 N/A 0 0
3:54 pm 15:54 undefined 88 31.1 55 12.8 33 33 undefined N/A 29.93 1014 N/A 0 0
4:54 pm 16:54 undefined 86 30 57 13.9 37 37 undefined N/A 29.9 1013 N/A 0 0
5:54 pm 17:54 undefined 86 30 56 13.3 36 36 undefined N/A 29.9 1013 N/A 0 0
6:54 pm 18:54 undefined 85 29.4 58 14.4 40 40 undefined N/A 29.91 1013 N/A 0 0
7:54 pm 19:54 undefined 84 28.9 54 12.2 36 36 undefined N/A 29.93 1014 N/A 0 0
8:54 pm 20:54 undefined 83 28.3 53 11.7 36 36 undefined N/A 29.94 1014 N/A 0 0
9:54 pm 21:54 undefined 81 27.2 55 12.8 41 41 undefined N/A 29.97 1015 N/A 0 0
10:54 pm 22:54 undefined 80 26.7 57 13.9 45 45 undefined N/A 29.98 1015 N/A 0 0
11:54 pm 23:54 undefined 79 26.1 57 13.9 47 47 undefined N/A 29.98 1015 N/A 0 0

Powered by AerisWeather